Location: Saint-Symphorien
(44.1835°N, 6.0545°E)
Time: 01:25:16
(UTC+00:00)

Daily predictions for brighter satellites

Satellite Brightness Start Highest point End
(mag) Time Altitude Azimuth Time Altitude Azimuth Time Altitude Azimuth
SL-16 R/B 4.4 01:04:18 23° N 01:04:18 23° N 01:06:24 10° N
Cosmos 1980 Rocket 4.2 01:20:38 23° ENE 01:20:38 23° ENE 01:23:05 10° NE
Cosmos 2263 Rocket 4.3 01:17:18 10° N 01:21:41 22° NE 01:26:01 10° E
Resurs 1-4 Rocket 4.1 01:50:09 10° N 01:51:57 21° N 01:51:57 21° N
CZ-2D R/B 4.1 01:53:22 10° N 01:55:14 21° N 01:55:14 21° N
SJ 16-02 4.1 02:02:15 10° N 02:03:00 14° N 02:03:00 14° N
Lacrosse 5 3.5 02:13:50 30° NNE 02:13:50 30° NNE 02:16:49 10° NE
ATLAS 5 CENTAUR R/B 4.4 02:16:15 11° NNW 02:16:15 11° NNW 02:17:18 10° N
Cosmos 2278 4.4 02:23:24 48° N 02:23:24 48° N 02:27:35 10° NNE
SL-4 R/B 4.0 02:28:00 29° E 02:28:00 29° E 02:30:44 10° ENE
ARIANE 5 R/B 3.2 02:21:30 10° NNE 02:25:29 51° NE 02:25:29 51° NE
USA 267 3.1 02:27:04 10° NE 02:33:38 75° SE 02:34:08 71° S
NOSS 3-3 (A) 3.8 02:34:42 84° E 02:34:42 84° E 02:41:08 10° NE
NOSS 3-3 (C) 3.8 02:34:50 83° E 02:34:50 83° E 02:41:13 10° NE
ADEOS II 3.2 02:42:07 10° N 02:45:20 32° NNW 02:45:20 32° NNW
Cosmos 1339 Rocket 4.4 02:47:26 58° S 02:48:45 82° E 02:54:58 10° N
Cosmos 990 Rocket 4.5 02:44:39 10° NNW 02:49:48 59° ENE 02:54:57 10° SE
ATLAS 2AS CENTAUR R/B 3.9 02:42:51 10° NNW 02:50:01 42° NE 02:56:37 10° ESE
IDEFIX/ARIANE 42P 2.5 02:45:45 10° NNE 02:51:04 83° ESE 02:51:13 82° SE
Cosmos 921 Rocket 4.1 02:52:56 37° N 02:52:56 37° N 02:55:32 10° NNE
Cosmos 2360 Rocket 4.1 02:47:37 11° SSE 02:51:55 26° ESE 02:56:31 10° NE
BREEZE-M DEB (TANK) 4.2 02:51:05 51° SW 02:53:13 74° SSE 03:17:34 10° ENE
Cosmos 1697 Rocket 4.1 02:56:36 24° NW 02:56:36 24° NW 03:00:19 10° N
Cosmos 468 Rocket 4.2 02:57:16 58° SSE 02:58:07 69° ESE 03:03:21 10° NNE
Cosmos 1980 Rocket 3.0 03:02:24 37° NW 03:02:24 37° NW 03:07:12 10° NNE
Cosmos 44 Rocket 4.5 03:03:33 28° SSE 03:05:04 36° ESE 03:09:29 10° NE
Cosmos 2263 Rocket 2.0 03:00:29 10° NNW 03:06:08 68° WSW 03:11:45 10° SSE
Meteor 1-11 Rocket 4.1 03:01:40 10° N 03:07:24 63° ENE 03:12:58 10° SSE
USA 234 3.5 03:01:50 10° ESE 03:08:18 67° NNE 03:14:47 10° NW
Cosmos 44 4.4 03:10:35 29° NNW 03:10:35 29° NNW 03:14:04 10° NNE
Cosmos 2322 Rocket 2.4 03:08:23 38° S 03:10:32 68° ESE 03:16:12 10° NNE
Cosmos 1844 Rocket 4.4 03:05:32 10° N 03:10:35 32° NE 03:15:37 10° ESE
Meteor 1-4 Rocket 3.6 03:13:45 39° NNE 03:13:45 39° NNE 03:16:06 10° N
Meteor 1-27 Rocket 4.3 03:10:08 13° S 03:15:23 62° E 03:21:12 10° NNE
Cosmos 1707 Rocket 3.9 03:14:38 35° SSE 03:16:16 61° E 03:20:34 10° NNE
Cosmos 1666 2.9 03:13:29 10° N 03:17:17 66° E 03:18:11 47° SE
CZ-2D R/B 4.1 03:14:16 10° N 03:17:38 45° NW 03:17:38 45° NW
Cosmos 1812 3.6 03:21:36 37° NNW 03:21:36 37° NNW 03:24:12 10° N
SL-16 R/B 2.1 03:20:04 46° SSW 03:21:51 82° WNW 03:27:34 10° NNE
CZ-3B R/B 3.6 03:21:33 23° NW 03:23:09 30° N 03:31:37 10° ENE
USA 276 3.5 03:25:21 33° N 03:25:27 34° NNE 03:28:25 10° E
COSMOS 2441 4.3 03:21:20 10° N 03:26:15 77° WNW 03:27:54 42° SSW
Cosmos 1536 3.2 03:25:34 10° N 03:29:39 66° E 03:33:40 10° SSE
ATLAS CENTAUR R/B 4.3 03:21:17 10° NW 03:31:18 37° N 03:35:35 10° E
Cosmos 1733 Rocket 3.8 03:27:48 10° N 03:32:03 52° ENE 03:36:16 10° SSE
Cosmos 2173 Rocket 4.5 03:25:47 10° N 03:32:07 64° E 03:38:25 10° SSE
Spot 4 Rocket 4.3 03:28:28 10° N 03:33:23 47° WNW 03:34:17 42° W
CZ-2C R/B 2.8 03:29:00 10° NNE 03:34:09 68° ESE 03:39:19 10° S
Cosmos 1898 Rocket 3.4 03:29:26 10° NNW 03:34:39 64° WSW 03:39:52 10° S
ASTEX 1 4.3 03:34:42 10° NNW 03:38:38 29° WNW 03:38:38 29° WNW
ALOS 4.2 03:35:07 10° NE 03:39:11 29° E 03:43:14 10° SSE
CZ-4C R/B 4.3 03:33:47 10° NNW 03:40:12 36° NE 03:47:33 10° ESE
Cosmos 2219 Rocket 4.5 03:36:12 10° SSE 03:40:34 23° E 03:44:59 10° NE
Cosmos 1869 Rocket 4.4 03:37:55 10° NNW 03:40:47 31° WNW 03:40:47 31° WNW
Cosmos 858 Rocket 4.3 03:37:08 10° NNW 03:42:20 76° WSW 03:47:31 10° SSE
MSX 4.0 03:37:21 10° N 03:42:58 54° WNW 03:45:54 27° SW
Cosmos 967 Rocket 4.4 03:40:08 28° SW 03:43:47 78° NW 03:50:13 10° NNE
IRIDIUM 104 4.4 03:41:14 10° NNW 03:46:16 50° W 03:50:24 15° SSW
Landsat 5 3.7 03:41:53 10° S 03:46:19 55° W 03:50:43 10° NNW
Cosmos 2228 Rocket 4.4 03:48:01 23° NW 03:48:01 23° NW 03:50:50 10° NNW
PSLV R/B 3.4 03:43:43 10° NNE 03:47:56 84° WNW 03:51:00 18° SSW
Cosmos 1862 Rocket 3.8 03:46:35 10° S 03:50:56 70° E 03:55:17 10° NNE
CZ-4C R/B 4.1 03:55:01 28° WNW 03:55:01 28° WNW 03:57:08 10° NNW
Cosmos 1937 Rocket 3.4 03:50:40 10° NNW 03:55:43 57° WSW 04:00:43 10° S
Lacrosse 5 3.8 03:53:01 12° NW 03:56:12 20° N 03:59:54 10° NE
H-2A R/B 2.4 03:52:42 10° S 03:56:54 44° W 04:01:12 10° NNW
Cosmos 2208 Rocket 4.0 03:54:00 10° SSW 03:59:14 86° ESE 04:04:28 10° NNE
ERBS 4.2 03:58:34 17° NW 03:59:17 18° NNW 04:01:40 10° NNE
X-37B 1.8 03:59:50 27° SSW 03:59:50 27° SSW 04:02:22 10° SSE
Cosmos 841 Rocket 3.4 03:56:29 15° SSW 04:00:51 75° WNW 04:06:08 10° NNE
FALCON 9 DEB 4.0 04:01:05 30° WNW 04:02:06 38° NNW 04:05:20 10° NE
ERS-2 2.0 03:58:29 10° S 04:02:06 62° WSW 04:05:45 10° NNW
USA 32 4.2 03:58:08 10° NNW 04:03:13 51° W 04:08:17 10° SSW
Cosmos 2016 Rocket 4.2 03:57:30 10° N 04:03:38 74° E 04:09:42 10° SSE
Cosmos 1814 Rocket 3.9 03:59:50 10° SSW 04:05:03 86° WNW 04:10:23 10° NNE
ARIANE 5 R/B 4.0 04:01:48 10° NNW 04:05:08 18° WNW 04:05:49 17° WNW
Cosmos 1743 3.1 04:01:21 10° N 04:05:09 66° E 04:08:56 10° SSE
Cosmos 2061 Rocket 4.3 03:59:21 10° N 04:05:49 77° E 04:12:15 10° SSE
SL-4 R/B 2.7 04:03:35 26° W 04:06:00 54° NNW 04:10:43 10° NE
Cosmos 1000 Rocket 4.4 04:00:14 10° SSW 04:06:24 77° W 04:12:35 10° N
Cosmos 1763 Rocket 4.2 04:04:26 24° WSW 04:06:56 36° WNW 04:11:50 10° N
CZ-2C R/B 4.0 04:04:46 10° NNW 04:07:48 23° WNW 04:08:05 23° WNW
Cosmos 2333 Rocket 3.5 04:02:32 10° S 04:07:55 43° ESE 04:13:20 10° NE
Cosmos 2322 4.2 04:08:06 10° S 04:13:40 61° ESE 04:19:15 10° NNE
Cosmos 1544 3.7 04:11:53 10° N 04:15:26 57° E 04:18:57 10° SSE
USA 267 3.9 04:10:16 10° NE 04:16:23 44° NNW 04:21:29 15° W
NOSS 3-4 (A) 3.9 04:10:28 10° NW 04:17:28 63° WSW 04:25:10 10° SSE
NOSS 3-4 (C) 3.9 04:10:34 10° NW 04:17:34 63° WSW 04:25:17 10° SSE
CZ-4B R/B 1.2 04:18:44 10° S 04:21:52 63° WSW 04:25:08 10° NNW
Cosmos 540 Rocket 3.8 04:20:36 11° SW 04:25:21 46° WNW 04:30:21 10° N
ADEOS 3.5 04:20:18 10° NNE 04:25:32 79° WNW 04:30:45 10° SSW
Cosmos 1725 Rocket 4.0 04:19:21 10° N 04:25:34 89° E 04:31:45 10° S
ADEOS Rocket 3.2 04:19:35 10° S 04:26:09 55° W 04:32:07 10° NNW
Cosmos 1975 3.7 04:24:23 10° N 04:28:20 54° E 04:32:14 10° SSE
COSMO-SKYMED 1 3.5 04:24:42 10° SSE 04:28:55 53° ENE 04:33:09 10° N
IDEFIX/ARIANE 42P 4.3 04:27:00 10° NNW 04:29:57 15° WNW 04:32:01 12° W
Cosmos 2333 4.3 04:25:57 10° SSW 04:31:44 86° ESE 04:37:33 10° NNE
Meteor 1-18 Rocket 4.4 04:27:00 10° S 04:32:31 80° E 04:38:07 10° NNE
Meteor 1-19 Rocket 4.5 04:27:56 10° S 04:33:23 75° E 04:39:02 10° NNE
Cosmos 2100 Rocket 4.4 04:27:45 10° NNW 04:33:41 42° W 04:39:35 10° SSW
Cosmos 2360 Rocket 2.5 04:30:07 10° SW 04:35:35 50° WNW 04:41:07 10° NNE
FENGYUN 3A 3.6 04:31:20 10° NNE 04:36:45 80° WNW 04:42:09 10° SSW
deb Chang Zheng 4 3.6 04:33:56 10° N 04:38:08 55° WNW 04:42:17 10° SSW
SAR-Lupe-4 3.7 04:35:33 10° S 04:39:02 49° W 04:42:33 10° NNW
Cosmos 1459 Rocket 4.3 04:35:03 10° NNW 04:40:37 39° W 04:46:09 10° SSW
ATLAS 2AS CENTAUR R/B 2.9 04:34:02 10° NW 04:41:10 52° WSW 04:47:42 10° SSE
Cosmos 1802 Rocket 4.2 04:36:49 10° NNW 04:42:44 47° W 04:48:41 10° SSW
Cosmos 1484 Rocket 2.9 04:39:26 10° N 04:43:21 55° WNW 04:47:16 10° SSW
Cosmos 1782 Rocket 4.1 04:40:19 10° N 04:44:47 67° E 04:49:13 10° SSE
Cosmos 1908 Rocket 3.6 04:41:44 10° NNW 04:46:11 66° W 04:50:36 10° S
Cosmos 44 Rocket 4.1 04:42:18 10° WSW 04:46:36 34° NW 04:51:03 10° NNE
Cosmos 1703 Rocket 3.5 04:42:44 10° S 04:47:04 83° W 04:51:27 10° N
Okean 1 3.6 04:46:06 10° SSW 04:49:59 46° WNW 04:53:54 10° N
SJ-12 4.0 04:45:52 10° NNE 04:50:02 85° ESE 04:54:10 10° SSW
USA 234 3.7 04:45:28 10° SSE 04:51:32 40° SW 04:57:37 10° WNW
Okean 1-7 2.9 04:48:03 10° S 04:52:17 80° W 04:56:34 10° N
Cosmos 1515 3.8 04:49:29 10° SSW 04:53:12 53° W 04:56:55 10° N
Cosmos 2123 Rocket 4.1 04:47:57 10° SSW 04:54:02 55° WNW 05:00:15 10° N
Cosmos 1844 Rocket 3.1 04:49:17 10° NW 04:54:34 42° WSW 04:59:51 10° S
Cosmos 2322 Rocket 3.5 04:50:44 10° W 04:55:06 22° NW 04:59:32 10° N
Meteor 1-31 Rocket 3.0 04:52:10 10° N 04:55:53 48° WNW 04:59:36 10° SSW
Cosmos 2278 Rocket 3.5 04:51:31 10° NNW 04:56:57 44° ENE 05:02:20 10° SE
Cosmos 1844 3.9 04:54:51 10° NW 05:00:09 46° WSW 05:05:25 10° S
